Regional Weather Roundup
Issued by NWS

Home | Current Version | Previous Version | Graphics & Text | Print | Product List | Glossary On
Versions: 1 2 3 4 5 6 7 8 9 10 11 12 13 14 15 16 17 18 19 20 21 22 23 24 25 26 27 28 29 30 31 32 33 34 35 36 37 38 39 40 41 42 43 44 45 46 47 48 49 50
000
ASUS43 KLOT 291812
RWRIL

ILLINOIS REGIONAL WEATHER ROUNDUP
NATIONAL WEATHER SERVICE CHICAGO/ROMEOVILLE IL
100 PM CDT SUN MAR 29 2015

NOTE: "FAIR" INDICATES FEW OR NO CLOUDS BELOW 12,000 FEET WITH NO
SIGNIFICANT WEATHER AND/OR OBSTRUCTIONS TO VISIBILITY.

* THESE STATIONS ARE NOT UNDER NWS QUALITY CONTROL. THEY ALSO MAY NOT
  REPORT WEATHER SUCH AS PRECIPITATION OR FOG.

ILZ001-002-007-009-015-016-024-291900-
NORTHWEST ILLINOIS

CITY           SKY/WX    TMP DP  RH WIND       PRES   REMARKS
MOLINE         PTSUNNY   43  34  70 SW21G30   29.87F
6HR MIN TEMP:  32; 6HR MAX TEMP:  44; 6HR PCP:  0.06;

STERLING*      CLOUDY    37  30  75 SW9       29.89F WCI  31
SAVANNA*       CLOUDY    39  33  78 S14G24    29.86F WCI  31
$$

ILZ003-004-008-010-011-017-018-291900-
NORTH CENTRAL ILLINOIS

CITY           SKY/WX    TMP DP  RH WIND       PRES   REMARKS
ROCKFORD       CLOUDY    34  28  79 S20G28    29.88F WCI  23
6HR MIN TEMP:  29; 6HR MAX TEMP:  34; 6HR PCP:  0.06;

FREEPORT*      CLOUDY    33  30  88 S12G18    29.86F WCI  25
ROCHELLE*      CLOUDY    32  30  90 S10       29.89F WCI  24
DE KALB*       MIX PCPN  32  28  85 S16G23    29.89F WCI  21
PERU*          CLOUDY    36  29  76 S17       29.92F WCI  25
$$

ILZ005-006-012>014-019>023-291900-
NORTHEAST ILLINOIS

CITY           SKY/WX    TMP DP  RH WIND       PRES   REMARKS
CHICAGO-OHARE  LGT SNOW  34  29  82 S26G36    29.89F WCI  21
6HR MIN TEMP:  31; 6HR MAX TEMP:  38; 6HR PCP:  0.01;

CHICAGO-MIDWAY CLOUDY    37  28  70 SW15G31   29.96R WCI  28
6HR MIN TEMP:  32; 6HR MAX TEMP:  40; 6HR PCP:  0.03;

AURORA         CLOUDY    35  27  72 S16G29    29.91F WCI  25
6HR MIN TEMP:  29; 6HR MAX TEMP:  36; 6HR PCP:  0.07;

LANSING*       CLOUDY    37  26  65 S21G31    29.94F WCI  26
JOLIET*        CLOUDY    36  31  80 S18G26    29.96S WCI  26
WAUKEGAN       CLOUDY    34  29  82 S28G35    29.85F WCI  21
6HR MIN TEMP:  33; 6HR MAX TEMP:  38; 6HR PCP:  0.02;

DUPAGE AIRPORT CLOUDY    34  28  79 S26G35    29.88F WCI  21
6HR MIN TEMP:  30; 6HR MAX TEMP:  37; 6HR PCP:  0.02;

KANKAKEE*      LGT RAIN  35  30  83 S18G28    29.99R WCI  24
WHEELING       MIX PCPN  34  29  82 S29G38    29.91F WCI  20
6HR MIN TEMP:  31; 6HR MAX TEMP:  39; 6HR PCP:  0.02;

MORRIS*        CLOUDY    35  29  78 S23G30    29.93F WCI  23
ROMEOVILLE*    LGT RAIN  34  29  83 S23G32    29.94F WCI  22
NORTHERLY ISL    N/A     37  25  62 S21         N/A  WCI  26
$$

LMZ740>746-291900-
SOUTHERN LAKE MICHIGAN

STATION/POSITION SKY/WX   TEMP    WIND        PRES    VSBY  WAVE
                          AIR SEA DIR/SP/G                  HT/PER
                          (F)     (DEG/KT/KT) (MB)    (MI)  (FT/S)
HARRISON CRIB              36     190/ 35/ 41   N/A
BURNHAM HARBOR             37     210/ 19/ 25   N/A
CALUMET HARBOR             37     160/ 15/ 27 1012.7F
BURNS HARBOR               38     190/ 19     1015.6F
MICHIGAN CITY              38     150/ 21/ 29   N/A
$$

ILZ025>027-034>036-040-047-049-050-058-095>099-291900-
WEST-CENTRAL ILLINOIS

CITY           SKY/WX    TMP DP  RH WIND       PRES   REMARKS
QUINCY         MOSUNNY   51  32  48 SW18G24   29.95F
GALESBURG*     PTSUNNY   41  35  79 S20G26    29.91F
MACOMB*        PTSUNNY   46  35  66 SW18G29   29.95F
JACKSONVILLE*  PTSUNNY   53  31  43 SW18G29   29.97F
PITTSFIELD*    PTSUNNY   52  33  48 SW13G23   29.98R
$$

ILZ028>032-037-038-041>044-048-051>054-059>061-291900-
CENTRAL ILLINOIS

CITY           SKY/WX    TMP DP  RH WIND       PRES   REMARKS
PONTIAC        CLOUDY    38  31  77 S16G23    29.99R WCI  28
BLOOMINGTON    PTSUNNY   42  31  65 SW22G28   29.98R
DECATUR        CLOUDY    48  29  47 S26G33    29.95F
PEORIA         CLOUDY    41  29  62 S21G29    29.95F
6HR MIN TEMP:  31; 6HR MAX TEMP:  41; 6HR PCP:  0.05;

LACON*         CLOUDY    37  28  70 S16G25    29.92F WCI  27
LINCOLN*       CLOUDY    46  31  55 S14G28    29.99R
SPRINGFIELD    CLOUDY    46  28  49 SW16      29.99R
6HR MIN TEMP:  32; 6HR MAX TEMP:  46; 6HR PCP:  0.01;

TAYLORVILLE    PTSUNNY   45  30  57 S22G33    29.96F
$$

ILZ033-039-045-046-055>057-062-063-291900-
EAST-CENTRAL ILLINOIS

CITY           SKY/WX    TMP DP  RH WIND       PRES   REMARKS
CHAMPAIGN      CLOUDY    41  31  67 S28G35    29.97F
DANVILLE*      LGT RAIN  37  28  71 S20G26    29.98F WCI  26
RANTOUL*       CLOUDY    40  32  75 S22G29    29.98F
MATTOON        CLOUDY    46  24  42 S22G33    30.01F
PARIS*         LGT RAIN  40  31  69 S22       30.06F
$$

ILZ079-100>102-291900-
SOUTHWEST ILLINOIS

CITY           SKY/WX    TMP DP  RH WIND       PRES   REMARKS
BELLEVILLE     MOSUNNY   55  30  38 S14G28    30.02F
CAHOKIA*       MOSUNNY   57  31  37 S18G25    30.00F
SPARTA*        MOSUNNY   52  31  43 S20       30.08F
$$

ILZ064>066-069>071-074>076-080>082-084>086-088>090-092>094-291900-
SOUTH-CENTRAL ILLINOIS

CITY           SKY/WX    TMP DP  RH WIND       PRES   REMARKS
CARBONDALE     MOSUNNY   55  29  36 S18       30.11F
6HR MIN TEMP:  32; 6HR MAX TEMP:  56;

CAIRO*         PTSUNNY   53  31  43 S16       30.15F
EFFINGHAM*     CLOUDY    51  21  31 SE17G25   30.07F
MARION         MOSUNNY   54  28  37 S16G25    30.11F
MT. VERNON     PTSUNNY   55  30  38 S20       30.11F
CENTRALIA*     PTSUNNY   52  27  38 S16G25    30.06F
SALEM*         CLOUDY    53  26  35 S14G28    30.07F
METROPOLIS*    SUNNY     55  29  35 S12G18    30.15F
$$

ILZ067-068-072-073-078-083-087-091-291900-
SOUTHEAST ILLINOIS

CITY           SKY/WX    TMP DP  RH WIND       PRES   REMARKS
LAWRENCEVILLE  MOSUNNY   51  25  36 S22G30    30.14F
FLORA*         SUNNY     51  27  39 S23       30.10F
FAIRFIELD*     MOSUNNY   53  28  38 S23G29    30.09F
HARRISBURG*    SUNNY     55  31  40 S14G21    30.14F
ROBINSON*      PTSUNNY   48  24  38 S25       30.14F
CARMI*         SUNNY     53  20  27 S18G25    30.15F
$$

ABBREVIATIONS USED IN REMARKS
   TC - TEMPERATURE IN CELSIUS
  WCI - WIND CHILL INDEX
   HX - HEAT INDEX
  VSB - VISIBILITY
$$



USA.gov is the U.S. government's official web portal to all federal, state and local government web resources and services.